Погода в Тузи-Сярмусе

Россия / Чувашская Республика     55°34′48″N   47°08′10″E
темп.,
°C
ветер,
м/с
пор.,
м/с
влажн.,
%
обл.,
%
осадки,
мм/ч
давл.,
гПа
погр.,
м
9 марта, вт
вт900:00−13з449467 0.0 100366
03:00−15з349733 0.0 100648
06:00−17зюз44989 0.0 100770
09:00−14з359550 0.0 1009242
12:00−11сз349299 0.1 1010376
15:00−10сз3591100 0.1 1010446
18:00−12сз359699 0.1 1011130
21:00−14ссз479695 0.3 1012160
10 марта, ср
ср1000:00−17ссз4109781 0.0 1013211
03:00−18ссз5109690 0.1 1014312
06:00−22ссз51097100 0.1 1015281
09:00−23ссз6995100 0.1 1018320
12:00−21ссз699398 0.0 1019437
15:00−18ссз699099 0.0 1021593
18:00−21ссз499479 0.0 1022150
21:00−23сз469640 0.0 102489
11 марта, чт
чт1100:00−24сз349817 0.0 102561
03:00−22зсз479957 0.1 1026149
06:00−25зсз479993 0.0 1026118
09:00−20зсз599588 0.0 1026264
12:00−16сз5893100 0.1 1026403
15:00−12сз5992100 0.1 1027478
18:00−13зсз479599 0.0 1027130
21:00−14сз479786 0.1 1029104
12 марта, пт
пт1200:00−16сз459745 0.0 103074
03:00−18зсз349623 0.0 103150
06:00−19з44970 0.0 103369
09:00−15з47930 0.0 1034242
12:00−11з47860 0.0 1033408
15:00−9з58810 0.0 1033517
18:00−13зюз46900 0.0 103389
21:00−15юз48920 0.0 1034119
13 марта, сб
сб1300:00−16юз48890 0.0 1034132
03:00−17юз47911 0.0 1035107
06:00−18юз47890 0.0 1035121
09:00−13юз510880 0.0 1034268
12:00−8ююз510800 0.0 1034537
15:00−7ююз612770 0.0 1031779
18:00−10ююз410820 0.0 1030200
21:00−12ююз5148550 0.0 1030435